Location: Gorrie
(43.8742°N, 81.1087°W)
Time: 14:40:54
(UTC+00:00)

COSMOS 2406 - Pass Details

Date: 09 December 2025
Orbit: 844 x 860 km, 71.0° (Epoch: 19 January)

Event Time Altitude Azimuth Distance (km) Brightness Sun altitude
Exits shadow 10:09:53 - 193° (SSW) 2,555 5.6 -27.4°
Reaches altitude 10° 10:10:08 10° 193° (SSW) 2,457 5.5 -27.4°
Maximum altitude 10:15:43 68° 111° (ESE) 905 3.4 -26.4°
Drops below altitude 10° 10:21:21 10° 30° (NNE) 2,473 5.9 -25.4°
Sets 10:23:49 0° 28° (NNE) 3,413 6.6 -24.9°
